Location: Gleizolles
(44.4833°N, 6.7667°E)
Time: 07:23:58
(UTC+00:00)

PCSat - Pass Details

Date: 14 December 2022
Orbit: 785 x 793 km, 67.0° (Epoch: 27 January)

Event Time Altitude Azimuth Distance (km) Brightness Sun altitude
Rises 17:50:12 0° 250° (WSW) 3,275 14.4 -19.9°
Reaches altitude 10° 17:53:04 10° 265° (W) 2,351 13.2 -20.4°
Maximum altitude 17:57:21 24° 318° (NW) 1,608 11.4 -21.2°
Enters shadow 18:01:23 11° 9° (N) 2,281 11.7 -21.9°
